Regional Weather Roundup
Issued by NWS

Home | Current Version | Previous Version | Text Only | Print | Product List | Glossary On
Versions: 1 2 3 4 5 6 7 8 9 10 11 12 13 14 15 16 17 18 19 20 21 22 23 24 25 26 27 28 29 30 31 32 33 34 35 36 37 38 39 40 41 42 43 44 45 46 47 48 49 50
000
ASUS43 KMPX 300510
RWRMN
WEATHER ROUNDUP FOR MINNESOTA
NATIONAL WEATHER SERVICE TWIN CITIES/CHANHASSEN MN
1200 AM CDT SAT JUL 30 2016


NOTE: "FAIR" INDICATES FEW OR NO CLOUDS BELOW 12,000 FEET WITH NO
SIGNIFICANT WEATHER AND/OR OBSTRUCTIONS TO VISIBILITY. N/A MEANS
CURRENT SKY AND/OR WEATHER CONDITIONS ARE NOT AVAILABLE.

MNZ060>063-068>070-300600-
   Twin Cities Metro

CITY           SKY/WX    TMP DP  RH WIND       PRES   REMARKS
TWIN CITIES    CLOUDY    70  57  63 N3        30.04R
ST PAUL        CLOUDY    70  59  68 NW3       30.04R
CRYSTAL        CLOUDY    63  54  72 CALM      30.03S
BLAINE         CLOUDY    64  57  77 CALM      30.04S
LAKEVILLE      CLOUDY    61  61 100 CALM      30.04S
EDEN PRAIRIE   PTCLDY    67  55  65 N5        30.03S
LAKEVILLE      CLOUDY    61  61 100 CALM      30.04S
SOUTH ST PAUL  CLOUDY    70  56  62 CALM      30.03S
LAKE ELMO      FAIR      63  61  94 CALM      30.05R
$$
MNZ001>005-007-008-013>017-022>024-027-028-300600-
   Northwest Minnesota

CITY           SKY/WX    TMP DP  RH WIND       PRES   REMARKS
BEMIDJI        PTCLDY    66  60  81 S7        30.04S
HALLOCK        CLEAR     61  57  88 SE6       29.99S
ROSEAU         CLOUDY    61  55  82 S3        30.01S
WARROAD        PTCLDY    64  61  88 CALM      30.01S
THIEF RVR FALL CLEAR     57  55  93 SE3       30.02S
CROOKSTON      CLEAR     61  55  82 SE6       30.01S
FOSSTON        CLEAR     55  43  62 CALM      30.04S
DETROIT LAKES  CLEAR     68  63  83 SE3       30.05S
MOORHEAD       LGT RAIN  68  64  88 S5        30.02S
PARK RAPIDS    PTCLDY    66  60  81 CALM      30.06R
MAHNOMEN       FAIR      63  59  87 S3        30.03S
$$
MNZ006-009>011-018-025>026-300600-
   North Central Minnesota

CITY           SKY/WX    TMP DP  RH WIND       PRES   REMARKS
BAUDETTE       PTCLDY    63  54  72 S6        30.02S
FLAG ISLAND    CLOUDY    72  57  60 CALM      29.99F
INTL FALLS     CLOUDY    61  56  83 CALM      30.04R
WASKISH        CLOUDY    59  57  94 CALM      30.04R
BIG FORK       CLOUDY    61  55  82 CALM      30.07R
LONGVILLE      CLOUDY    64  55  72 SE3       30.07R
GRAND RAPIDS   CLOUDY    60  54  80 SE5       30.10R
CRANE LAKE     CLEAR     54  52  94 S1        30.09R
ORR            CLEAR     57  52  82 CALM      30.06R
COOK           CLEAR     57  54  88 CALM      30.09R
WALKER         MOCLDY    65  57  75 CALM      30.05R
$$
MNZ012-019>021-037-300600-
   Northeast Minnesota

CITY           SKY/WX    TMP DP  RH WIND       PRES   REMARKS
DULUTH         CLEAR     57  53  86 E5        30.08S
ELY            CLEAR     57  48  72 CALM      30.09R
HIBBING        CLEAR     50  50 100 NW3       30.09R
EVELETH        CLEAR     53  51  95 CALM      30.11R
DULUTH HARBOR  CLEAR     64  59  82 N9        30.07S
TWO HARBORS    CLEAR     55  50  82 CALM      30.07S
SILVER BAY     CLEAR     50  48  93 CALM      30.07S
GRAND MARAIS     N/A     56  51  84 N6        30.08R
G MARAIS ARPRT CLEAR     48  45  87 CALM      30.12S
$$
MNZ029>031-032-039>041-046>048-054>057-064-300600-
   West Central Minnesota

CITY           SKY/WX    TMP DP  RH WIND       PRES   REMARKS
FERGUS FALLS   PTCLDY    64  63  94 SE6       30.05S
WHEATON        MOCLDY    64  63  94 SE5       30.04F
MORRIS         CLEAR     64  61  88 SE6       30.04S
ALEXANDRIA     PTCLDY    66  59  78 S6        30.07S
ELBOW LAKE     MOCLDY    65  63  93 E5        30.05S
WADENA         MOCLDY    63  61  94 SE1       30.06R
GLENWOOD       CLOUDY    66  61  82 CALM      30.07S
APPLETON       CLEAR     66  57  72 S3        30.04S
BENSON         PTCLDY    63  57  82 CALM      30.05S
ORTONVILLE     PTCLDY    64  57  77 CALM      30.04S
MADISON        CLEAR     61  57  88 S3        30.05S
WILLMAR        CLOUDY    66  61  82 CALM      30.07S
$$
MNZ033>034-036-042>043-049>051-058-059-300600-
   Central Minnesota

CITY           SKY/WX    TMP DP  RH WIND       PRES   REMARKS
ST CLOUD       PTCLDY    58  58 100 CALM      30.05S
SAUK CENTRE    MOCLDY    65  58  77 SE3       30.07R
PAYNESVILLE    CLOUDY    68  58  69 SE3       30.06F
AITKIN         CLOUDY    63  54  72 CALM      30.06S
PINE RIVER     CLOUDY    63  57  82 CALM      30.10R
BRAINERD       CLOUDY    64  55  72 CALM      30.07R
STAPLES        PTCLDY    64  55  72 SE5       30.07R
LONG PRAIRIE   MOCLDY    64  57  77 E3        30.07S
LITTLE FALLS   CLOUDY    63  54  72 CALM      30.07R
LITCHFIELD     PTCLDY    64  63  94 CALM      30.06F
BUFFALO        CLOUDY    61  56  83 CALM      30.06S
MAPLE LAKE     PTCLDY    59  57  94 CALM      30.06S
HUTCHINSON     CLEAR     59  57  92 CALM      30.06F
$$
MNZ037-044-045-052-053-300600-
   East Central Minnesota

CITY           SKY/WX    TMP DP  RH WIND       PRES   REMARKS
PRINCETON      PTCLDY    59  57  94 CALM      30.06S
MORA           CLOUDY    55  54  94 CALM      30.08S
CAMBRIDGE      CLOUDY    61  52  72 CALM      30.04S
RUSH CITY      CLOUDY    58  55  91 CALM      30.06S
MOOSE LAKE     PTCLDY    54  54 100 CALM      30.06S
HINCKLEY       FAIR      59  55  88 N3        30.07R
CLOQUET        CLEAR     54  48  82 CALM      30.08S
MCGREGOR       CLOUDY    57  54  88 CALM      30.08S
$$
MNZ071>073-080-081-089-090-097-098-300600-
   Southwest Minnesota

CITY           SKY/WX    TMP DP  RH WIND       PRES   REMARKS
MONTEVIDEO     CLEAR     64  57  77 CALM      30.07R
GRANITE FALLS  CLEAR     64  60  86 SE3       30.06F
CANBY          CLEAR     62  57  83 CALM      30.06F
MARSHALL       CLEAR     61  57  87 CALM      30.06S
REDWOOD FALLS  CLEAR     64  55  72 CALM      30.05S
OLIVIA         CLEAR     63  55  77 CALM      30.05S
PIPESTONE      CLEAR     63  55  77 N3        30.08R
WINDOM         CLEAR     57  55  94 CALM      30.06F
WORTHINGTON    CLEAR     58  55  90 CALM      30.08S
JACKSON        CLEAR     57  54  88 CALM      30.07S
TRACY          CLEAR     64  57  78 CALM      30.07S
SLAYTON        CLEAR     59  55  86 CALM      30.08S
$$
MNZ065>067-074>077-082>085-091>093-300600-
   South Central Minnesota

CITY           SKY/WX    TMP DP  RH WIND       PRES   REMARKS
MANKATO        PTCLDY    63  52  67 N3        30.04S
NEW ULM        CLEAR     63  54  72 CALM      30.05S
ST JAMES       CLEAR     54  52  94 CALM      30.06S
FAIRMONT       MOCLDY    61  54  77 NW6       30.04S
GLENCOE        CLEAR     60  58  93 CALM      30.04F
FARIBAULT      CLOUDY    59  57  94 CALM      30.04S
OWATONNA       CLOUDY    61  57  88 CALM      30.04F
WASECA         CLOUDY    59  55  88 CALM      30.05F
ALBERT LEA     CLOUDY    63  61  94 CALM      30.04F
$$
MNZ078>079-086>088-094>096-300600-
   Southeast Minnesota

CITY           SKY/WX    TMP DP  RH WIND       PRES   REMARKS
ROCHESTER      MOCLDY    65  60  84 N3        30.04S
RED WING       CLEAR     63  59  88 CALM      30.02R
STANTON        CLOUDY    63  59  88 CALM      30.03S
DODGE CENTER   CLOUDY    64  57  77 N3        30.05R
WINONA         CLEAR     66  64  94 CALM      30.02S FOG
AUSTIN         CLOUDY    64  61  88 N3        30.03S
PRESTON        CLOUDY    66  62  87 E5        30.04S
$$
ABBREVIATIONS USED IN REMARKS
   TC - TEMPERATURES IN CELSIUS
  WCI - WIND CHILL INDEX
   HX - HEAT INDEX
  VSB - VISIBILITY
$$




USA.gov is the U.S. government's official web portal to all federal, state and local government web resources and services.